STARLINK-1150 (45067 NORAD) Tracking and Keplerian Element Data

This shows tracking and keplerian element data for the satellite.

Feedback or suggestion? Click here.




ElementValue
Catalog45067
NameSTARLINK-1150
Epoch Orbit406
Epoch Day52.91667824
Epoch Year2020
RAAN118.021
Inclination52.9956
Eccentricity0.0001136
Argument of Perigee69.8982
Mean Anonmoly87.7098
Mean Motion15.75093221
Decay Rate0.00120351
L11 45067U 20006Z 20052.91667824 .00120351 00000-0 78296-3 0 9999
L22 45067 52.9956 118.0210 0001136 69.8982 87.7098 15.75093221 4060

Live tracking and technical data element details for STARLINK-1150 (NORAD 45067). STARLINK-1150 can be tracked NOW for your location showing map with azimuth and elevation plus other details from your city location.

Track the satellite on the map from your city or location and see movement details for azimuth, elevation, latitude, longitude, range, height, and movement on the map or in text.







IsCatalogInMostPopularTable: catalog: 45067, numindb: 5
Update: records affected: 1



GetName: 45067 STARLINK-1150

Hit Count: updated at: Mon, 24 Feb 2020 18:21:52 GMT